Meteo pe oră la Dzierniakowo

Astăzi, 27 Februarie, Sâmbătă

Timp Temperatura Precipitaţii Vânt Presiune Umiditate
00:00 +1°C° 0 mm 5 m/s 751 mmHg 87%
01:00 +1°C° 0 mm 5 m/s 751 mmHg 87%
02:00 0°C° 0 mm 4 m/s 751 mmHg 92%
03:00 0°C° 0 mm 5 m/s 751 mmHg 93%
04:00 0°C° 0 mm 5 m/s 751 mmHg 93%
05:00 0°C° 0 mm 5 m/s 750 mmHg 94%
06:00 0°C° 0 mm 5 m/s 751 mmHg 94%
07:00 0°C° 0 mm 5 m/s 751 mmHg 95%
08:00 -1°C° 0 mm 6 m/s 752 mmHg 96%
09:00 -1°C° 0 mm 6 m/s 752 mmHg 92%
10:00 +1°C° 0 mm 6 m/s 752 mmHg 87%
11:00 +2°C° 0 mm 6 m/s 753 mmHg 83%
12:00 +2°C° 0 mm 6 m/s 753 mmHg 79%
13:00 +3°C° 0 mm 6 m/s 754 mmHg 75%
14:00 +3°C° 0 mm 7 m/s 754 mmHg 72%
15:00 +3°C° 0 mm 6 m/s 754 mmHg 72%
16:00 +3°C° 0 mm 6 m/s 754 mmHg 72%
17:00 +2°C° 0 mm 5 m/s 754 mmHg 73%
18:00 +2°C° 0 mm 5 m/s 755 mmHg 76%
19:00 +1°C° 0 mm 5 m/s 755 mmHg 78%
20:00 0°C° 0 mm 5 m/s 756 mmHg 81%
21:00 -1°C° 0 mm 5 m/s 756 mmHg 84%
22:00 -1°C° 0 mm 5 m/s 756 mmHg 86%
23:00 -2°C° 0 mm 4 m/s 757 mmHg 89%

Mâine, 28 Februarie, Duminică

Timp Temperatura Precipitaţii Vânt Presiune Umiditate
00:00 -2°C° 0 mm 4 m/s 757 mmHg 90%
01:00 -2°C° 0 mm 4 m/s 757 mmHg 92%
02:00 -3°C° 0 mm 4 m/s 758 mmHg 93%
03:00 -2°C° 0 mm 4 m/s 757 mmHg 92%
04:00 -2°C° 0 mm 4 m/s 757 mmHg 91%
05:00 -2°C° 0 mm 4 m/s 757 mmHg 90%
06:00 -2°C° 0 mm 4 m/s 757 mmHg 89%
07:00 -2°C° 0 mm 4 m/s 757 mmHg 89%
08:00 -2°C° 0 mm 4 m/s 757 mmHg 88%
09:00 -1°C° 0 mm 4 m/s 756 mmHg 84%
10:00 0°C° 0 mm 4 m/s 756 mmHg 80%
11:00 +1°C° 0 mm 5 m/s 756 mmHg 76%
12:00 +2°C° 0 mm 5 m/s 755 mmHg 75%
13:00 +3°C° 0 mm 6 m/s 755 mmHg 74%
14:00 +4°C° 0 mm 6 m/s 755 mmHg 72%
15:00 +3°C° 0 mm 6 m/s 755 mmHg 77%
16:00 +3°C° 0 mm 6 m/s 754 mmHg 81%
17:00 +2°C° 0 mm 6 m/s 754 mmHg 86%
18:00 +2°C° 0 mm 6 m/s 754 mmHg 87%
19:00 +2°C° 0 mm 5 m/s 755 mmHg 88%
20:00 +2°C° 0 mm 5 m/s 755 mmHg 89%
21:00 +1°C° 0 mm 5 m/s 756 mmHg 90%
22:00 +1°C° 0 mm 4 m/s 756 mmHg 90%
23:00 +1°C° 0 mm 4 m/s 756 mmHg 91%

Poimâine, 1 Martie, Luni

Timp Temperatura Precipitaţii Vânt Presiune Umiditate
00:00 +1°C° 0 mm 3 m/s 757 mmHg 92%
01:00 +1°C° 0 mm 3 m/s 758 mmHg 93%
02:00 +2°C° 0 mm 2 m/s 758 mmHg 94%
03:00 +1°C° 0 mm 2 m/s 758 mmHg 95%
04:00 +1°C° 0 mm 2 m/s 758 mmHg 96%
05:00 -1°C° 0 mm 2 m/s 758 mmHg 97%
06:00 -1°C° 0 mm 2 m/s 758 mmHg 97%
07:00 -1°C° 0 mm 2 m/s 758 mmHg 97%
08:00 -1°C° 0 mm 2 m/s 759 mmHg 97%
09:00 +2°C° 0 mm 2 m/s 759 mmHg 91%
10:00 +2°C° 0 mm 3 m/s 759 mmHg 86%
11:00 +4°C° 0 mm 3 m/s 759 mmHg 80%
12:00 +5°C° 0 mm 3 m/s 759 mmHg 76%
13:00 +7°C° 0 mm 3 m/s 759 mmHg 73%
14:00 +8°C° 0 mm 3 m/s 759 mmHg 69%
15:00 +8°C° 0 mm 3 m/s 759 mmHg 70%
16:00 +8°C° 0 mm 3 m/s 759 mmHg 72%
17:00 +7°C° 0 mm 3 m/s 758 mmHg 73%
18:00 +5°C° 0 mm 3 m/s 758 mmHg 77%
19:00 +5°C° 0 mm 3 m/s 758 mmHg 81%
20:00 +4°C° 0 mm 4 m/s 758 mmHg 84%
21:00 +3°C° 0 mm 4 m/s 758 mmHg 85%
22:00 +3°C° 0 mm 4 m/s 758 mmHg 86%
23:00 +3°C° 0 mm 4 m/s 758 mmHg 86%

2 Martie, Marţi

Timp Temperatura Precipitaţii Vânt Presiune Umiditate
00:00 +1°C° 0 mm 4 m/s 758 mmHg 88%
01:00 +1°C° 0 mm 4 m/s 758 mmHg 90%
02:00 +1°C° 0 mm 4 m/s 758 mmHg 91%
03:00 0°C° 0 mm 4 m/s 758 mmHg 92%
04:00 0°C° 0 mm 4 m/s 757 mmHg 93%
05:00 0°C° 0 mm 3 m/s 757 mmHg 94%
06:00 0°C° 0 mm 3 m/s 757 mmHg 95%
07:00 0°C° 0 mm 3 m/s 758 mmHg 96%
08:00 0°C° 0 mm 3 m/s 758 mmHg 96%
09:00 0°C° 0 mm 3 m/s 758 mmHg 93%
10:00 +1°C° 0 mm 3 m/s 758 mmHg 89%
11:00 +2°C° 0 mm 3 m/s 758 mmHg 86%
12:00 +4°C° 0 mm 3 m/s 758 mmHg 81%
13:00 +5°C° 0 mm 3 m/s 758 mmHg 75%
14:00 +7°C° 0 mm 3 m/s 758 mmHg 70%
15:00 +7°C° 0 mm 3 m/s 758 mmHg 71%
16:00 +7°C° 0 mm 3 m/s 757 mmHg 72%
17:00 +7°C° 0 mm 3 m/s 757 mmHg 73%
18:00 +5°C° 0 mm 3 m/s 757 mmHg 79%
19:00 +4°C° 0 mm 3 m/s 757 mmHg 84%
20:00 +3°C° 0 mm 3 m/s 757 mmHg 90%
21:00 +3°C° 0 mm 3 m/s 757 mmHg 91%
22:00 +2°C° 0 mm 3 m/s 757 mmHg 92%
23:00 +2°C° 0 mm 3 m/s 758 mmHg 93%

3 Martie, Miercuri

Timp Temperatura Precipitaţii Vânt Presiune Umiditate
00:00 +3°C° 0 mm 2 m/s 758 mmHg 92%
01:00 +3°C° 0 mm 2 m/s 758 mmHg 92%
02:00 +4°C° 0 mm 1 m/s 758 mmHg 91%
03:00 +4°C° 0 mm 1 m/s 757 mmHg 92%
04:00 +3°C° 0 mm 1 m/s 757 mmHg 93%
05:00 +3°C° 0 mm 1 m/s 757 mmHg 93%
06:00 +2°C° 0 mm 1 m/s 757 mmHg 94%
07:00 +2°C° 0 mm 1 m/s 757 mmHg 94%
08:00 +2°C° 0 mm 1 m/s 757 mmHg 95%
09:00 +3°C° 0 mm 1 m/s 757 mmHg 89%
10:00 +4°C° 0 mm 1 m/s 757 mmHg 83%
11:00 +5°C° 0 mm 1 m/s 757 mmHg 77%
12:00 +6°C° 0 mm 1 m/s 757 mmHg 73%
13:00 +6°C° 0 mm 2 m/s 757 mmHg 69%
14:00 +6°C° 0 mm 2 m/s 756 mmHg 65%
15:00 +6°C° 0 mm 2 m/s 756 mmHg 68%
16:00 +6°C° 0 mm 2 m/s 755 mmHg 71%
17:00 +4°C° 0 mm 3 m/s 755 mmHg 74%
18:00 +4°C° 0 mm 2 m/s 754 mmHg 79%
19:00 +4°C° 0 mm 1 m/s 754 mmHg 85%
20:00 +3°C° 0 mm 1 m/s 753 mmHg 91%
21:00 +3°C° 0 mm 1 m/s 753 mmHg 91%
22:00 +3°C° 0 mm 1 m/s 753 mmHg 92%
23:00 +1°C° 0 mm 2 m/s 752 mmHg 92%

4 Martie, Joi

Timp Temperatura Precipitaţii Vânt Presiune Umiditate
00:00 +1°C° 0 mm 2 m/s 752 mmHg 92%
01:00 +1°C° 0 mm 2 m/s 751 mmHg 92%
02:00 0°C° 0 mm 3 m/s 750 mmHg 92%
03:00 0°C° 0 mm 3 m/s 750 mmHg 93%
04:00 0°C° 0 mm 3 m/s 749 mmHg 93%
05:00 0°C° 0 mm 3 m/s 748 mmHg 94%
06:00 +1°C° 0 mm 3 m/s 748 mmHg 94%
07:00 0°C° 0 mm 4 m/s 748 mmHg 95%
08:00 +1°C° 0 mm 4 m/s 747 mmHg 95%
09:00 +1°C° 0 mm 4 m/s 747 mmHg 91%
10:00 +3°C° 0 mm 4 m/s 747 mmHg 87%
11:00 +3°C° 0 mm 5 m/s 747 mmHg 83%
12:00 +3°C° 0 mm 5 m/s 746 mmHg 78%
13:00 +5°C° 0 mm 5 m/s 746 mmHg 72%
14:00 +5°C° 0 mm 5 m/s 745 mmHg 67%
15:00 +5°C° 0 mm 4 m/s 745 mmHg 71%
16:00 +4°C° 0 mm 4 m/s 745 mmHg 74%
17:00 +4°C° 0 mm 3 m/s 745 mmHg 78%
18:00 +4°C° 0.1 mm 2 m/s 745 mmHg 82%
19:00 +4°C° 0.1 mm 2 m/s 744 mmHg 85%
20:00 +3°C° 0.1 mm 2 m/s 744 mmHg 89%
21:00 +3°C° 0 mm 2 m/s 744 mmHg 91%
22:00 +2°C° 0 mm 2 m/s 744 mmHg 92%
23:00 +2°C° 0 mm 2 m/s 745 mmHg 94%
Arată mai mult

Formular de consimțământ

Meteoprog și furnizorii noștri de servicii pot stoca și accesa date personale, precum cookies, identificatori de dispozitiv sau alte tehnologii similare pe dispozitivul dumneavoastră și procesa astfel de date pentru a personaliza conținutul și reclamele, dar și pentru a oferi caracteristici de social media și pentru a analiza traficul.

  • Stocarea și/sau accesarea informațiilor pe dispozitivul dumneavoastră

    Cookies, identificatori de dispozitiv sau alte informații pot fi stocate sau accesate pe dispozitiv în scopurile indicate mai sus.

  • Reclame și conținut personalizat, evaluarea reclamelor și a conținutului, informații despre audiențe și dezvoltarea produselor

    Reclamele și conținutul pot fi personalizate pe baza unui profil. Pot fi adăugate date suplimentare pentru a personaliza mai bine reclamele și conținutul. Performanța reclamelor și conținutului poate fi măsurată. Pot fi obținute informații despre utilizatorii care au văzut reclamele și conținutul. Aceste date pot fi utilizate pentru a dezvolta sau îmbunătăți experiența utilizatorilor, sistemele și software-ul.

Dând clic pe ‘Sunt de acord’, permiteți utilizarea cookie-urilor menționate, a identificatorilor de dispozitiv, balizelor web sau altor tehnologii similare. Setările pot fi modificate din browser-ul dispozitivului dumneavoastră.

În anumite scopuri, interesele legitime pot prima asupra consimțământului. Puteți citi mai multe informații în acest sens în Politica privind Confidențialitatea Datelor și Cookie.